Regional Weather Roundup
Issued by NWS

Home | Current Version | Previous Version | Graphics & Text | Print | Product List | Glossary On
Versions: 1 2 3 4 5 6 7 8 9 10 11 12 13 14 15 16 17 18 19 20 21 22 23 24 25 26 27 28 29 30 31 32 33 34 35 36 37 38 39 40 41 42 43 44 45 46 47 48 49 50
000
ASUS43 KLSX 231757
RWRMO

WEATHER SUMMARY FOR MISSOURI
NATIONAL WEATHER SERVICE SPRINGFIELD MO
100 PM CDT FRI JUN 23 2017

NOTE: "FAIR" INDICATES FEW OR NO CLOUDS BELOW 12,000 FEET WITH NO
       SIGNIFICANT WEATHER AND/OR OBSTRUCTIONS TO VISIBILITY.
       CURRENT SKY AND/OR WEATHER CONDITIONS ARE NOT AVAILABLE FOR
       CHILLICOTHE AND FARMINGTON.

MOZ001>031-035>038-043-044-053-054-231900-
...NORTHERN AND WESTERN MISSOURI...

CITY           SKY/WX    TMP DP  RH WIND       PRES   REMARKS
KANSAS CTY INT CLOUDY    80  58  46 N16G24    29.93R
6HR MIN TEMP:  71; 6HR MAX TEMP:  81;

LEE`S SUMMIT   LGT RAIN  83  53  35 N16G32    29.91R
6HR MIN TEMP:  73; 6HR MAX TEMP:  83; 6HR PCP: TRACE;

ST JOSEPH      MOSUNNY   79  53  40 N18G29    29.95R
6HR MIN TEMP:  70; 6HR MAX TEMP:  80; 6HR PCP: TRACE;

CHILLICOTHE      N/A     82  61  48 MISG      29.88F
6HR MIN TEMP:  72; 6HR MAX TEMP:  82;


$$
MOZ066>068-077>081-088>096-101>105-231900-
...SOUTHWEST MISSOURI...

CITY           SKY/WX    TMP DP  RH WIND       PRES   REMARKS
SPRINGFIELD    TSTM      70  69  97 VRB5      29.85F FOG
6HR MIN TEMP:  68; 6HR MAX TEMP:  83; 6HR PCP:  1.17;

JOPLIN         CLOUDY    74  73  97 N16       29.89R
6HR MIN TEMP:  72; 6HR MAX TEMP:  83; 6HR PCP:  0.54;

BRANSON        PTSUNNY   86  73  66 SW7       29.81S HX  93

$$
MOZ032>034-039>042-045>050-055>058-069>072-231900-
...CENTRAL MISSOURI...

CITY           SKY/WX    TMP DP  RH WIND       PRES   REMARKS
COLUMBIA       NOT AVBL
JEFFERSON CITY CLOUDY    82  53  36 N16G29    29.81R
6HR MIN TEMP:  72; 6HR MAX TEMP:  83; 6HR PCP: TRACE;

ROLLA          CLOUDY    78  69  73 NW16G24   29.80R
6HR MIN TEMP:  72; 6HR MAX TEMP:  81; 6HR PCP: TRACE;

SEDALIA        CLOUDY    80  59  48 N17G25    29.86R
6HR MIN TEMP:  73; 6HR MAX TEMP:  82; 6HR PCP: TRACE;

WARRENSBURG    CLOUDY    81  54  39 N12G22    29.83F

$$
MOZ051-052-059>065-231900-
...EAST CENTRAL MISSOURI...

CITY           SKY/WX    TMP DP  RH WIND       PRES   REMARKS
ST LOUIS INTL  MOSUNNY   87  71  58 NW18G26   29.73S HX  93
6HR MIN TEMP:  78; 6HR MAX TEMP:  87; 6HR PCP: TRACE;


$$
MOZ072>076-082>087-097>100-106>115-231900-
...SOUTH CENTRAL AND SOUTHEAST MISSOURI...

CITY           SKY/WX    TMP DP  RH WIND       PRES   REMARKS
CAPE GIRARDEAU CLOUDY    79  73  82 NW6       29.68R
6HR MIN TEMP:  75; 6HR MAX TEMP:  79; 6HR PCP:  0.16;

POPLAR BLUFF   PTSUNNY   84  76  76 NW7       29.69R HX  93
6HR MIN TEMP:  75; 6HR MAX TEMP:  84; 6HR PCP:  0.01;

WEST PLAINS    CLOUDY    86  70  58 NW6       29.78S HX  90
6HR MIN TEMP:  74; 6HR MAX TEMP:  89;


$$


USA.gov is the U.S. government's official web portal to all federal, state and local government web resources and services.